Satellite: NOAA-11
Catalog number: 19531
Epoch time:      08087.13542105
Element set:      96
Inclination:      098.7960 deg
RA of node:       177.6093 deg
Eccentricity:    0.0010870
Arg of perigee:   304.3300 deg
Mean anomaly:     055.6829 deg
Mean motion:   14.14869307 rev/day
Decay rate:        8.5e-07 rev/day^2
Epoch rev:             630
Checksum:              292

Satellite: NOAA-12
Catalog number: 21263
Epoch time:      08087.08075285
Element set:     604
Inclination:      098.7672 deg
RA of node:       089.0407 deg
Eccentricity:    0.0012575
Arg of perigee:   008.7460 deg
Mean anomaly:     351.3925 deg
Mean motion:   14.25522943 rev/day
Decay rate:        3.4e-07 rev/day^2
Epoch rev:           87669
Checksum:              316

Satellite: MET-3/5
Catalog number: 21655
Epoch time:      08086.91835178
Element set:    0411
Inclination:      082.5590 deg
RA of node:       162.5019 deg
Eccentricity:    0.0012754
Arg of perigee:   214.3209 deg
Mean anomaly:     145.7091 deg
Mean motion:   13.17015304 rev/day
Decay rate:        5.1e-07 rev/day^2
Epoch rev:           79875
Checksum:              295

Satellite: MET-2/21
Catalog number: 22782
Epoch time:      08086.77085796
Element set:    0101
Inclination:      082.5511 deg
RA of node:       176.9484 deg
Eccentricity:    0.0023189
Arg of perigee:   157.6031 deg
Mean anomaly:     202.6148 deg
Mean motion:   13.83627066 rev/day
Decay rate:       -1.0e-07 rev/day^2
Epoch rev:           73573
Checksum:              309

Satellite: OKEAN-4
Catalog number: 23317
Epoch time:      08086.85356984
Element set:    0543
Inclination:      082.5414 deg
RA of node:       031.8864 deg
Eccentricity:    0.0023615
Arg of perigee:   041.4406 deg
Mean anomaly:     318.8590 deg
Mean motion:   14.82590845 rev/day
Decay rate:       1.74e-06 rev/day^2
Epoch rev:           72608
Checksum:              317

Satellite: NOAA-14
Catalog number: 23455
Epoch time:      08087.45041707
Element set:      79
Inclination:      098.9507 deg
RA of node:       159.6280 deg
Eccentricity:    0.0009482
Arg of perigee:   022.2023 deg
Mean anomaly:     337.9558 deg
Mean motion:   14.13738738 rev/day
Decay rate:       1.89e-06 rev/day^2
Epoch rev:           68280
Checksum:              331

Satellite: SICH-1
Catalog number: 23657
Epoch time:      08086.81978398
Element set:     340
Inclination:      082.5313 deg
RA of node:       172.8914 deg
Eccentricity:    0.0025064
Arg of perigee:   034.4513 deg
Mean anomaly:     325.8334 deg
Mean motion:   14.81563047 rev/day
Decay rate:       3.28e-06 rev/day^2
Epoch rev:           67802
Checksum:              310

Satellite: NOAA-15
Catalog number: 25338
Epoch time:      08087.11792966
Element set:     403
Inclination:      098.5524 deg
RA of node:       081.0765 deg
Eccentricity:    0.0009624
Arg of perigee:   282.8431 deg
Mean anomaly:     077.1686 deg
Mean motion:   14.24691139 rev/day
Decay rate:      -1.50e-06 rev/day^2
Epoch rev:           51311
Checksum:              310

Satellite: RESURS
Catalog number: 25394
Epoch time:      08087.68106080
Element set:     888
Inclination:      098.4005 deg
RA of node:       135.3196 deg
Eccentricity:    0.0002440
Arg of perigee:   074.9755 deg
Mean anomaly:     285.1691 deg
Mean motion:   14.24155663 rev/day
Decay rate:       -1.8e-07 rev/day^2
Epoch rev:           50484
Checksum:              310

Satellite: FENGYUN1
Catalog number: 25730
Epoch time:      08086.96324893
Element set:    0406
Inclination:      098.7212 deg
RA of node:       065.5419 deg
Eccentricity:    0.0022588
Arg of perigee:   044.4651 deg
Mean anomaly:     315.8326 deg
Mean motion:   14.07720250 rev/day
Decay rate:       1.13e-06 rev/day^2
Epoch rev:           45739
Checksum:              300

Satellite: OKEAN-0
Catalog number: 25860
Epoch time:      08086.61068582
Element set:    0325
Inclination:      097.7464 deg
RA of node:       080.8287 deg
Eccentricity:    0.0001164
Arg of perigee:   103.6761 deg
Mean anomaly:     256.4580 deg
Mean motion:   14.73509722 rev/day
Decay rate:        3.2e-07 rev/day^2
Epoch rev:           46723
Checksum:              303

Satellite: NOAA-16
Catalog number: 26536
Epoch time:      08087.10759147
Element set:     865
Inclination:      099.1527 deg
RA of node:       074.5027 deg
Eccentricity:    0.0011370
Arg of perigee:   095.0932 deg
Mean anomaly:     265.1572 deg
Mean motion:   14.12472355 rev/day
Decay rate:       -8.1e-07 rev/day^2
Epoch rev:           38718
Checksum:              313

Satellite: NOAA-17
Catalog number: 27453
Epoch time:      08087.47342721
Element set:     862
Inclination:      098.5408 deg
RA of node:       154.4412 deg
Eccentricity:    0.0011324
Arg of perigee:   351.4408 deg
Mean anomaly:     008.6562 deg
Mean motion:   14.23960015 rev/day
Decay rate:       1.02e-06 rev/day^2
Epoch rev:           29917
Checksum:              288

